This is the latest recevied weather packets stored in our database for station/object KN6WGU. If no packets are shown the sender has not sent any weather packets the latest 10 day(s).
| Time | Temp. | Humidity | Pressure | Rain* | Wind** | Luminosity | Snow |
|---|---|---|---|---|---|---|---|
| 1778046079 | 7.78° C | 99% | 1001.9 hPa | 1.78 mm | - | 0 W/m² | - |
| 1778045777 | 7.78° C | 99% | 1001.9 hPa | 1.78 mm | - | 0 W/m² | - |
| 1778045476 | 7.78° C | 99% | 1001.9 hPa | 0 mm | - | 0 W/m² | - |
| 1778045173 | 7.78° C | 99% | 1001.7 hPa | 1.27 mm | - | 0 W/m² | - |
| 1778044871 | 7.78° C | 99% | 1002 hPa | 1.27 mm | - | 0 W/m² | - |
| 1778044568 | 7.78° C | 99% | 1001.9 hPa | 1.78 mm | - | 0 W/m² | - |
| 1778044264 | 7.78° C | 99% | 1001.7 hPa | 1.78 mm | - | 0 W/m² | - |
| 1778043963 | 7.78° C | 99% | 1001.7 hPa | 0 mm | - | 0 W/m² | - |
| 1778043659 | 7.78° C | 99% | 1001.9 hPa | 1.27 mm | - | 0 W/m² | - |
| 1778043356 | 7.78° C | 99% | 1001.7 hPa | 1.27 mm | - | 0 W/m² | - |
| 1778043052 | 7.78° C | 99% | 1002 hPa | 1.78 mm | - | 0 W/m² | - |
| 1778042751 | 7.78° C | 99% | 1001.8 hPa | 1.78 mm | - | 0 W/m² | - |
| 1778042447 | 8.33° C | 99% | 1002.1 hPa | 0 mm | - | 0 W/m² | - |
| 1778042144 | 8.33° C | 99% | 1001.8 hPa | 0 mm | - | 0 W/m² | - |
| 1778041843 | 7.78° C | 99% | 1001.8 hPa | 0 mm | - | 0 W/m² | - |
| 1778041541 | 7.78° C | 99% | 1001.9 hPa | 0 mm | - | 0 W/m² | - |
| 1778041239 | 7.78° C | 99% | 1002 hPa | 0 mm | - | 0 W/m² | - |
| 1778040938 | 7.78° C | 99% | 1002.1 hPa | 1.27 mm | - | 0 W/m² | - |
| 1778040633 | 7.78° C | 99% | 1002.3 hPa | 1.27 mm | - | 0 W/m² | - |
| 1778040332 | 7.78° C | 99% | 1002.5 hPa | 0 mm | - | 0 W/m² | - |
| 1778040027 | 8.33° C | 99% | 1002.1 hPa | 0 mm | - | 0 W/m² | - |
| 1778039724 | 8.33° C | 99% | 1002.5 hPa | 1.78 mm | - | 0 W/m² | - |
| 1778039421 | 8.89° C | 99% | 1002.6 hPa | 1.78 mm | - | 0 W/m² | - |
| 1778039119 | 8.89° C | 99% | 1002.7 hPa | 1.78 mm | - | 0 W/m² | - |
| 1778038815 | 8.89° C | 99% | 1002.6 hPa | 3.05 mm | - | 0 W/m² | - |
* Rain latest hour (hover to see other rain measurements)
** Current wind speed in m/s (hover to see current wind gust speed)